Skip Page Navigation
NASA JPL Caltech
NASA Logo - Jet Propulsion Laboratory + View the NASA Portal
+ Center for Near-Earth Object Studies
JPL Home Earth Solar System Stars & Galaxies Technology
JPL Solar System Dynamics
BODIES ORBITS EPHEMERIDES TOOLS PHYSICAL DATA DISCOVERY FAQ SITE MAP
JPL Small-Body Database Browser
Search: [ help ]  
52425 (1994 LU8)
Classification: Main-belt Asteroid          SPK-ID: 2052425
Ephemeris | Orbit Diagram | Orbital Elements | Mission Design | Physical Parameters | Discovery Circumstances ]

[ show orbit diagram ]
Orbital Elements at Epoch 2459200.5 (2020-Dec-17.0) TDB
Reference: JPL 29 (heliocentric ecliptic J2000)
 Element Value Uncertainty (1-sigma)   Units 
e .16951926828385 3.0019e-08  
a 2.255393659491705 7.8172e-09 au
q 1.873060976642637 6.6537e-08 au
i 2.835551384374758 3.4068e-06 deg
node 93.83275764272619 9.8853e-05 deg
peri 163.2390170920491 9.989e-05 deg
M 298.6890928193934 1.503e-05 deg
tp 2459411.201293153284
(2021-Jul-15.70129315)
5.1782e-05 TDB
period 1237.177347771739
3.39
6.4321e-06
1.761e-08
d
yr
n .290984959147846 1.5128e-09 deg/d
Q 2.637726342340774 9.1424e-09 au
  Orbit Determination Parameters
   # obs. used (total)      820  
   data-arc span      9784 days (26.79 yr)  
   first obs. used      1994-06-08  
   last obs. used      2021-03-22  
   planetary ephem.      DE441  
   SB-pert. ephem.      SB441-N16  
   condition code      0  
   norm. resid. RMS      .60088  
   source      ORB  
   producer      Otto Matic  
   solution date      2021-May-04 06:18:25  

Additional Information
 Earth MOID = .856548 au 
 Jupiter MOID = 2.41213 au 
 T_jup = 3.603 
[ show covariance matrix ]

Ephemeris | Orbit Diagram | Orbital Elements | Mission Design | Physical Parameters | Discovery Circumstances ]

Physical Parameter Table
Parameter Symbol Value Units Sigma Reference Notes
absolute magnitude H 15.95   n/a MPCxxxxx  

52425 (1994 LU8)          Discovered 1994-Jun-08 by Debehogne, H., Elst, E. W. at La Silla
Reference: 20030216/Numbers.arcLast Updated: 2004-04-19

Alternate Designations
 1994 LU8 = 2000 AQ248 
Ephemeris | Orbit Diagram | Orbital Elements | Mission Design | Physical Parameters | Discovery Circumstances ]
ABOUT SSD CREDITS/AWARDS PRIVACY/COPYRIGHT GLOSSARY LINKS
FirstGov 2021-Jun-21 20:50 UT
(server date/time)  
NASA Home Page
Site Manager:   Ryan S. Park
Webmaster  Alan B. Chamberlin